Location: Unspecified
(0.0000°N, 0.0000°E)
Time: 01:18:38
(UTC+02:00)

Ariane H10 - Visible Passes

Search period start: 26 April 2015 00:00
Search period end: 06 May 2015 00:00
Orbit: 395 x 35155 km, 4.1° (Epoch: 24 April)

Date Brightness Start Highest point End Pass type
(mag) Time Alt. Az. Time Alt. Az. Time Alt. Az.
26 Apr 6.0 04:31:35 57° ESE 04:31:35 57° ESE 13:57:45 10° E visible
27 Apr 4.8 20:44:16 10° W 21:36:39 72° N 21:39:19 39° ENE visible
29 Apr 5.6 05:10:09 78° SSW 05:10:41 80° S 14:44:29 10° E visible
30 Apr 4.4 21:58:15 10° W 22:17:47 67° NNW 22:17:47 67° NNW visible
02 May 5.8 05:48:35 49° WSW 05:53:26 80° S 15:28:42 10° E visible
03 May 5.6 22:48:56 10° W 22:56:07 32° WNW 22:56:07 32° WNW visible
05 May 6.4 06:26:55 28° W 06:37:36 81° S 16:11:21 10° E visible
